KG6QHD-13 Weather Reports


Display with metric or nautical units.
time (UTC)temp
F
wind
direction
speed
MPH
gust
MPH
rain 1hr
in
rain 24hr
in
rain mn
in
humidity
%
barometer
mb
20260505094558 41 234 0.0 3.0 0.00 0.04 0.01 85 1013.0
20260505094048 41 0 0.0 3.0 0.00 0.04 0.01 85 1013.0
20260505093548 41 234 1.0 3.0 0.00 0.04 0.01 85 1013.0
20260505093055 41 0 0.0 1.0 0.00 0.04 0.01 85 1013.0
20260505092545 41 0 0.0 2.0 0.00 0.04 0.01 85 1013.0
20260505092048 41 0 0.0 3.0 0.00 0.04 0.01 85 1013.1
20260505091558 41 0 1.0 5.0 0.00 0.04 0.01 85 1013.0
20260505091048 41 0 1.0 5.0 0.00 0.04 0.01 85 1013.2
20260505090548 41 201 2.0 4.0 0.00 0.04 0.01 86 1013.2
20260505090057 41 203 0.0 3.0 0.00 0.04 0.01 86 1013.3
20260505085548 41 0 0.0 2.0 0.00 0.04 0.01 85 1013.2
20260505085048 41 0 0.0 2.0 0.00 0.04 0.01 85 1013.1
20260505084551 41 240 0.0 2.0 0.00 0.04 0.01 85 1013.2
20260505084048 41 0 0.0 2.0 0.00 0.04 0.01 85 1013.3
20260505083547 41 0 0.0 3.0 0.00 0.04 0.01 85 1013.6
20260505083053 41 0 0.0 3.0 0.00 0.04 0.01 85 1013.6
20260505082547 41 0 0.0 3.0 0.00 0.04 0.01 85 1013.7
20260505082049 42 0 0.0 3.0 0.00 0.04 0.01 85 1013.9
20260505081601 42 0 0.0 1.0 0.00 0.04 0.01 85 1013.9
20260505081045 42 0 0.0 1.0 0.00 0.04 0.01 85 1014.0
20260505080545 42 0 0.0 0.0 0.00 0.04 0.01 85 1014.0
20260505080053 42 0 0.0 2.0 0.00 0.04 0.01 85 1014.0
20260505075551 42 0 0.0 2.0 0.00 0.04 0.01 85 1013.9
20260505075048 42 0 0.0 2.0 0.00 0.04 0.01 85 1014.0
20260505074608 42 0 0.0 0.0 0.00 0.04 0.01 85 1014.2
20260505074048 42 0 0.0 0.0 0.00 0.04 0.01 85 1014.3
20260505073547 42 0 0.0 0.0 0.00 0.04 0.01 85 1014.3
20260505073054 42 0 0.0 0.0 0.00 0.04 0.01 85 1014.3
20260505072548 42 0 0.0 0.0 0.00 0.04 0.01 85 1014.4
20260505072048 42 0 0.0 0.0 0.00 0.04 0.01 85 1014.5
20260505071549 42 0 0.0 0.0 0.00 0.04 0.01 85 1014.5
20260505071048 42 0 0.0 0.0 0.00 0.04 0.01 85 1014.2
20260505070549 42 0 0.0 0.0 0.01 0.04 0.01 85 1014.5
20260505070055 42 0 0.0 0.0 0.01 0.04 0.01 85 1014.5
20260505065545 43 0 0.0 2.0 0.02 0.04 0.01 84 1014.4
20260505065044 43 0 0.0 2.0 0.02 0.04 0.01 84 1014.4
20260505064553 43 0 0.0 2.0 0.02 0.04 0.01 84 1014.5
20260505064048 43 0 0.0 2.0 0.02 0.04 0.01 83 1014.7
20260505063548 43 0 0.0 0.0 0.02 0.04 0.01 83 1014.5
20260505063058 43 0 0.0 0.0 0.02 0.04 0.01 83 1014.5
20260505062548 43 0 0.0 2.0 0.02 0.04 0.01 83 1014.6
20260505062048 43 0 0.0 2.0 0.02 0.04 0.01 83 1014.6
20260505061624 43 0 0.0 3.0 0.02 0.04 0.01 82 1014.5
20260505061048 43 0 0.0 3.0 0.02 0.04 0.01 82 1014.7
20260505060554 43 112 1.0 4.0 0.01 0.03 0.00 81 1014.6
20260505060055 43 0 0.0 4.0 0.01 0.03 0.00 79 1014.6
20260505055547 43 0 2.0 4.0 0.00 0.02 0.02 79 1014.6
20260505055049 44 0 0.0 2.0 0.00 0.02 0.02 78 1014.9
20260505054609 43 0 0.0 4.0 0.00 0.02 0.02 78 1015.1
20260505054044 44 0 0.0 7.0 0.00 0.02 0.02 77 1014.8
20260505053548 44 273 3.0 7.0 0.00 0.02 0.02 77 1014.8
20260505053056 44 293 3.0 8.0 0.00 0.02 0.02 76 1014.5
20260505052544 44 310 3.0 8.0 0.00 0.02 0.02 76 1014.7
20260505052044 44 346 2.0 7.0 0.00 0.02 0.02 76 1014.7
20260505051558 44 281 3.0 9.0 0.00 0.02 0.02 76 1014.7
20260505051048 43 263 3.0 9.0 0.00 0.02 0.02 76 1014.9
20260505050545 43 255 6.0 9.0 0.00 0.02 0.02 76 1014.9
20260505041551 43 247 4.0 8.0 0.00 0.02 0.02 78 1014.9
20260505041048 43 290 3.0 8.0 0.00 0.02 0.02 78 1014.7
20260505040544 43 284 1.0 5.0 0.00 0.02 0.02 78 1014.5
20260505040059 43 310 1.0 8.0 0.00 0.02 0.02 78 1014.5
20260505035546 43 247 4.0 9.0 0.00 0.02 0.02 78 1014.4
20260505035048 43 282 5.0 9.0 0.00 0.02 0.02 78 1014.2
20260505034554 44 306 2.0 4.0 0.00 0.02 0.02 78 1014.1
20260505034048 44 342 1.0 8.0 0.00 0.02 0.02 77 1014.1
20260505033548 44 352 3.0 8.0 0.01 0.02 0.02 75 1014.4
20260505033054 44 47 0.0 12.0 0.01 0.02 0.02 75 1014.0
20260505032547 44 0 3.0 12.0 0.01 0.02 0.02 76 1014.0
20260505032047 44 249 7.0 11.0 0.01 0.02 0.02 75 1014.5
20260505031558 44 289 7.0 10.0 0.01 0.02 0.02 76 1014.4
20260505031047 44 281 3.0 8.0 0.01 0.02 0.02 78 1014.3
20260505030547 44 333 4.0 8.0 0.01 0.02 0.02 77 1014.1
20260505030055 45 299 3.0 7.0 0.01 0.02 0.02 77 1013.9
20260505025545 45 0 1.0 9.0 0.01 0.02 0.02 77 1013.9
20260505025048 45 293 3.0 9.0 0.01 0.02 0.02 76 1013.9
20260505024610 45 258 4.0 9.0 0.01 0.02 0.02 76 1014.1
20260505024047 45 281 4.0 7.0 0.01 0.02 0.02 74 1014.0
20260505023547 45 338 4.0 7.0 0.00 0.01 0.01 72 1014.0
20260505023055 45 320 3.0 6.0 0.00 0.01 0.01 74 1013.9
20260505022549 45 0 2.0 6.0 0.00 0.01 0.01 72 1013.9
20260505022049 45 271 2.0 6.0 0.01 0.01 0.01 73 1013.8
20260505021609 45 269 2.0 5.0 0.01 0.01 0.01 74 1013.9
20260505021050 45 317 2.0 5.0 0.01 0.01 0.01 75 1013.9
20260505020548 45 313 1.0 7.0 0.01 0.01 0.01 74 1013.8
20260505020057 45 271 3.0 7.0 0.01 0.01 0.01 74 1013.9
20260505015547 45 259 2.0 4.0 0.01 0.01 0.01 74 1013.9
20260505015048 45 0 1.0 5.0 0.01 0.01 0.01 74 1013.9
20260505014552 45 296 2.0 5.0 0.01 0.01 0.01 71 1013.7
20260505014047 45 319 2.0 9.0 0.01 0.01 0.01 72 1013.6
20260505013547 46 242 2.0 13.0 0.01 0.01 0.01 72 1013.5
20260505013058 46 291 6.0 13.0 0.01 0.01 0.01 71 1013.7
20260505012547 46 296 7.0 14.0 0.01 0.01 0.01 70 1013.8
20260505012048 47 273 9.0 14.0 0.00 0.00 0.00 67 1013.8
20260505011557 48 275 8.0 13.0 0.00 0.00 0.00 65 1013.7
20260505011045 48 267 7.0 13.0 0.00 0.00 0.00 63 1013.8
20260505010550 49 281 8.0 13.0 0.00 0.00 0.00 60 1013.6
20260505010052 49 298 9.0 13.0 0.00 0.00 0.00 58 1013.8
20260505005548 50 315 8.0 13.0 0.00 0.00 0.00 55 1013.6
20260505005048 51 267 9.0 13.0 0.00 0.00 0.00 51 1013.5
20260505004552 51 255 4.0 10.0 0.00 0.00 0.00 49 1013.3
20260505004047 52 290 5.0 13.0 0.00 0.00 0.00 47 1013.0
20260505003548 52 325 7.0 14.0 0.00 0.00 0.00 47 1012.8
20260505003055 52 315 7.0 18.0 0.00 0.00 0.00 46 1013.0
20260505002547 52 330 8.0 18.0 0.00 0.00 0.00 46 1012.9
20260505002047 52 9 8.0 19.0 0.00 0.00 0.00 45 1012.8
20260505001549 53 304 2.0 26.0 0.00 0.00 0.00 45 1012.6
20260505001047 54 12 10.0 26.0 0.00 0.00 0.00 41 1012.4
20260505000545 55 343 13.0 24.0 0.00 0.00 0.00 38 1012.3
20260505000051 56 12 14.0 20.0 0.00 0.00 0.00 36 1012.2
20260504235544 56 352 9.0 19.0 0.00 0.00 0.00 35 1012.2
20260504235045 57 307 6.0 19.0 0.00 0.00 0.00 34 1011.9
20260504234551 57 28 9.0 19.0 0.00 0.00 0.00 33 1012.1
20260504234049 58 360 7.0 17.0 0.00 0.00 0.00 33 1011.6
20260504233548 58 352 7.0 17.0 0.00 0.00 0.00 32 1011.7
20260504233100 58 5 8.0 17.0 0.00 0.00 0.00 32 1011.8
20260504232544 59 317 3.0 14.0 0.00 0.00 0.00 32 1011.7
20260504232045 59 156 3.0 14.0 0.00 0.00 0.00 32 1011.7
20260504231553 59 339 3.0 13.0 0.00 0.00 0.00 32 1011.7
20260504231047 59 325 3.0 13.0 0.00 0.00 0.00 32 1011.7
20260504230548 59 335 7.0 11.0 0.00 0.00 0.00 31 1011.7
20260504230053 59 31 6.0 11.0 0.00 0.00 0.00 31 1011.7
20260504225549 59 352 5.0 14.0 0.00 0.00 0.00 31 1011.6
20260504225047 60 35 8.0 14.0 0.00 0.00 0.00 30 1011.6
20260504224552 59 360 4.0 11.0 0.00 0.00 0.00 30 1011.4
20260504224050 59 9 6.0 11.0 0.00 0.00 0.00 30 1011.5
20260504223547 59 25 5.0 18.0 0.00 0.00 0.00 29 1011.6
20260504223057 59 19 6.0 18.0 0.00 0.00 0.00 30 1011.6
20260504222549 60 19 8.0 13.0 0.00 0.00 0.00 29 1011.6
20260504222052 60 338 4.0 14.0 0.00 0.00 0.00 29 1011.5
20260504221604 60 360 6.0 14.0 0.00 0.00 0.00 30 1011.5
20260504221049 60 319 4.0 13.0 0.00 0.00 0.00 29 1011.4
20260504220544 60 350 6.0 14.0 0.00 0.00 0.00 29 1011.5
20260504220118 60 311 8.0 14.0 0.00 0.00 0.00 29 1011.5
20260504215547 60 310 6.0 14.0 0.00 0.00 0.00 27 1011.4
20260504215047 61 346 8.0 15.0 0.00 0.00 0.00 27 1011.4
20260504214551 61 16 7.0 15.0 0.00 0.00 0.00 27 1011.3
20260504214048 62 28 5.0 13.0 0.00 0.00 0.00 25 1011.2
20260504213548 62 298 8.0 14.0 0.00 0.00 0.00 25 1011.2
20260504213117 62 348 8.0 17.0 0.00 0.00 0.00 25 1011.2
20260504212549 62 292 5.0 17.0 0.00 0.00 0.00 25 1011.1
20260504212044 62 5 6.0 13.0 0.00 0.00 0.00 26 1011.2
20260504211557 61 5 7.0 13.0 0.00 0.00 0.00 26 1011.3
20260504211048 61 352 3.0 14.0 0.00 0.00 0.00 27 1011.3
20260504210549 61 346 7.0 15.0 0.00 0.00 0.00 28 1011.4
20260504210059 61 352 8.0 15.0 0.00 0.00 0.00 27 1011.4
20260504205548 61 344 5.0 14.0 0.00 0.00 0.00 28 1011.3
20260504205048 61 327 9.0 15.0 0.00 0.00 0.00 27 1011.4
20260504204604 61 313 8.0 19.0 0.00 0.00 0.00 28 1011.4
20260504204048 61 341 7.0 19.0 0.00 0.00 0.00 29 1011.4
20260504203549 62 327 9.0 19.0 0.00 0.00 0.00 26 1011.6
20260504203057 62 352 9.0 18.0 0.00 0.00 0.00 26 1011.6
20260504202548 63 323 7.0 20.0 0.00 0.00 0.00 25 1011.5
20260504202047 64 360 11.0 20.0 0.00 0.00 0.00 25 1011.4
20260504201603 65 360 11.0 20.0 0.00 0.00 0.00 23 1011.2
20260504201047 66 17 11.0 19.0 0.00 0.00 0.00 23 1011.4
20260504200548 66 228 4.0 17.0 0.00 0.00 0.00 23 1011.0
20260504200108 65 233 5.0 17.0 0.00 0.00 0.00 22 1011.2
20260504195549 64 217 8.0 18.0 0.00 0.00 0.00 22 1011.3
20260504195048 64 266 8.0 20.0 0.00 0.00 0.00 22 1011.4
20260504194555 64 198 12.0 20.0 0.00 0.00 0.00 22 1011.5
20260504194048 65 219 9.0 19.0 0.00 0.00 0.00 22 1011.5
20260504193548 64 215 3.0 13.0 0.00 0.00 0.00 21 1011.5
20260504193052 64 166 7.0 13.0 0.00 0.00 0.00 20 1011.5
20260504192547 63 173 4.0 15.0 0.00 0.00 0.00 22 1011.6
20260504192049 63 154 9.0 15.0 0.00 0.00 0.00 21 1011.7
20260504191559 64 200 8.0 15.0 0.00 0.00 0.00 22 1011.7
20260504191047 63 284 7.0 16.0 0.00 0.00 0.00 23 1011.7
20260504190548 62 207 7.0 16.0 0.00 0.00 0.00 21 1011.7
20260504190053 63 193 7.0 14.0 0.00 0.00 0.00 19 1011.6
20260504185547 64 277 5.0 14.0 0.00 0.00 0.00 18 1011.7
20260504185044 64 113 1.0 17.0 0.00 0.00 0.00 17 1011.6
20260504184557 64 28 5.0 17.0 0.00 0.00 0.00 19 1011.6
20260504184048 63 337 6.0 15.0 0.00 0.00 0.00 20 1011.8
20260504183549 63 95 4.0 15.0 0.00 0.00 0.00 19 1012.0
20260504183053 63 110 3.0 16.0 0.00 0.00 0.00 21 1012.3
20260504182548 62 230 6.0 16.0 0.00 0.00 0.00 21 1012.4
20260504182048 63 207 10.0 16.0 0.00 0.00 0.00 18 1012.5
20260504181554 63 169 5.0 16.0 0.00 0.00 0.00 16 1012.5
20260504181049 63 242 7.0 16.0 0.00 0.00 0.00 15 1012.4
20260504180550 64 277 6.0 14.0 0.00 0.00 0.00 17 1012.4
20260504180049 65 0 3.0 17.0 0.00 0.00 0.00 19 1012.4
20260504175547 63 247 5.0 17.0 0.00 0.00 0.00 19 1012.7
20260504175047 62 214 5.0 18.0 0.00 0.00 0.00 19 1012.8
20260504174553 62 203 8.0 20.0 0.00 0.00 0.00 20 1013.0
20260504174047 63 202 8.0 20.0 0.00 0.00 0.00 20 1013.0
20260504173546 63 208 8.0 20.0 0.00 0.00 0.00 20 1013.0
20260504173059 64 206 8.0 20.0 0.00 0.00 0.00 19 1013.0
20260504172546 64 352 6.0 14.0 0.00 0.00 0.00 21 1013.0
20260504172047 63 150 4.0 17.0 0.00 0.00 0.00 23 1013.2
20260504171557 63 250 7.0 20.0 0.00 0.00 0.00 23 1013.3
20260504171047 63 198 4.0 21.0 0.00 0.00 0.00 23 1013.3
20260504170546 62 200 12.0 21.0 0.00 0.00 0.00 23 1013.3
20260504151045 56 217 8.0 17.0 0.00 0.00 0.00 33 1014.3
20260504150548 55 225 7.0 17.0 0.00 0.00 0.00 33 1014.3
20260504141045 53 243 8.0 28.0 0.00 0.00 0.00 35 1014.2
20260504140545 53 249 9.0 28.0 0.00 0.00 0.00 34 1014.2
20260504130548 52 254 8.0 18.0 0.00 0.00 0.00 33 1014.1
20260504110545 48 213 8.0 17.0 0.00 0.00 0.00 35 1014.1
20260504100544 49 255 7.0 15.0 0.00 0.00 0.00 33 1014.3
20260504100103 49 257 8.0 17.0 0.00 0.00 0.00 33 1014.2